Regional Weather Roundup
Issued by NWS

Home | Current Version | Previous Version | Text Only | Print | Product List | Glossary Off
Versions: 1 2 3 4 5 6 7 8 9 10 11 12 13 14 15 16 17 18 19 20 21 22 23 24 25 26 27 28 29 30 31 32 33 34 35 36 37 38 39 40 41 42 43 44 45 46 47 48 49 50

000
ASUS43 KOAX 022102
RWRNE
WEATHER ROUNDUP FOR NEBRASKA
NATIONAL WEATHER SERVICE OMAHA NE
400 PM CDT TUE JUN 02 2015

NOTES: SATELLITE DATA IS BEING USED TO AUGMENT CLOUD COVER ABOVE
       12000 FEET.
       "FAIR" INDICATES FEW OR NO CLOUDS BELOW 12,000 FEET WITH NO
       SIGNIFICANT WEATHER AND/OR OBSTRUCTIONS TO VISIBILITY.

  * THESE STATIONS DO NOT REPORT WEATHER SUCH AS RAIN...SNOW OR FOG.

NEZ001>004-019>022-054>056-022200-
NEBRASKA PANHANDLE

CITY           SKY/WX    TMP DP  RH WIND       PRES   REMARKS
SCOTTSBLUFF    MOSUNNY   86  53  32 MISG      29.83F
ALLIANCE       MOSUNNY   81  60  48 SE8       29.83F
CHADRON        MOSUNNY   83  63  50 CALM      29.80F
SIDNEY         SUNNY     81  59  47 SW5       29.87F
$$

NEZ057>060-069>072-079>082-022200-
SOUTHWEST NEBRASKA

CITY           SKY/WX    TMP DP  RH WIND       PRES   REMARKS
NORTH PLATTE   MOSUNNY   84  67  56 SE12      29.82F
IMPERIAL       MOSUNNY   83  65  54 SE10      29.82F
MCCOOK         SUNNY     85  65  51 S12       29.81F
$$

NEZ005>010-023>029-035>040-094-022200-
NORTH CENTRAL NEBRASKA

CITY           SKY/WX    TMP DP  RH WIND       PRES   REMARKS
AINSWORTH      SUNNY     86  60  41 S14       29.81F
BROKEN BOW     CLOUDY    75  65  70 SE14      29.87S
ORD            PTSUNNY   73  62  68 S18       29.86F
$$

NEZ041-046>049-061>064-073>077-083>087-022200-
SOUTH CENTRAL NEBRASKA

CITY           SKY/WX    TMP DP  RH WIND       PRES   REMARKS
GRAND ISLAND   MOSUNNY   79  63  57 S14G22    29.88F
HASTINGS       MOSUNNY   79  65  62 S13G23    29.87F
KEARNEY *      PTSUNNY   79  64  61 S17       29.86F
$$

NEZ011>018-030>034-042>045-022200-
NORTHEAST NEBRASKA

CITY           SKY/WX    TMP DP  RH WIND       PRES   REMARKS
NORFOLK        MOSUNNY   78  63  59 S22       29.87F
COLUMBUS *     CLOUDY    73  61  64 S17       29.91F
FREMONT        PTSUNNY   74  60  60 SE15G24   29.93S
TEKAMAH        CLOUDY    80  61  52 S22       29.92F
$$

NEZ050>053-065>068-078-088>093-022200-
SOUTHEAST NEBRASKA

CITY           SKY/WX    TMP DP  RH WIND       PRES   REMARKS
LINCOLN        PTSUNNY   78  63  59 SE17G24   29.91F
OMAHA EPPLEY   CLOUDY    75  60  59 SE21      29.94F
FALLS CITY     CLOUDY    72  60  66 SE13G21   29.95F
$$

NEZ044-045-051>053-067-022200-
OMAHA AREA

CITY           SKY/WX    TMP DP  RH WIND       PRES   REMARKS
OMAHA EPPLEY   CLOUDY    75  60  59 SE21      29.94F
FREMONT        PTSUNNY   74  60  60 SE15G24   29.93S
OFFUTT AFB     LGT RAIN  67  63  87 E12       29.94F
$$


USA.gov is the U.S. government's official web portal to all federal, state and local government web resources and services.